Tracking 29892 objects as of 21-Nov-2024
HD Live streaming from Space Station
objects crossing your sky now

OBJECT M

Track OBJECT M now!
10-day predictions


NORAD ID: 55259
Int'l Code: 2023-007M
Perigee: 270.7 km
Apogee: 277.3 km
Inclination: 97.3 °
Period: 89.8 minutes
Semi major axis: 6644 km
RCS: Unknown
Launch date: January 15, 2023
Source: People's Republic of China (PRC)
Launch site: Taiyaun Space Center, China (TSC)
Your satellite tracking list
Your tracking list is empty




NASA's NSSDC Master Catalog

Two Line Element Set (TLE):
1 55259U 23007M   24326.18245552  .00734555  26109-3  12420-2 0  9998
2 55259  97.2754  49.4508 0004975 288.9163  71.1577 16.02736945104202
Source of the keplerian elements: AFSPC